Location: Falkner
(32.6954°N, 86.0502°W)
Time: 15:16:09
(UTC+00:00)

Helios 1A Rocket - Pass Details

Date: 29 October 2020
Orbit: 563 x 586 km, 98.3° (Epoch: 03 December)

Event Time Altitude Azimuth Distance (km) Brightness Sun altitude
Rises 23:34:13 0° 139° (SE) 2,795 6.1 -8.7°
Reaches altitude 10° 23:36:39 10° 126° (SE) 1,896 5.2 -9.2°
Maximum altitude 23:40:00 25° 71° (ENE) 1,199 3.9 -9.9°
Drops below altitude 10° 23:43:21 10° 16° (NNE) 1,896 5.3 -10.6°
Sets 23:45:47 0° 3° (N) 2,794 6.3 -11.1°
